| time (UTC) | temp F | wind direction | speed knots | gust knots | rain 1hr in | rain 24hr in | rain mn in | humidity % | barometer mb |
| 20260905042343 | 79 | 51 | 0.9 | 0.9 | 0.00 | 0.00 | 0.00 | 87 | 1012.7 |
| 20260905041843 | 80 | 232 | 0.0 | 0.9 | 0.00 | 0.00 | 0.00 | 87 | 1012.7 |
| 20260905041343 | 80 | 265 | 0.0 | 0.9 | 0.00 | 0.00 | 0.00 | 86 | 1012.7 |
| 20260905040844 | 80 | 221 | 0.0 | 0.9 | 0.00 | 0.00 | 0.00 | 87 | 1012.6 |
| 20260905040332 | 80 | 221 | 0.0 | 0.9 | 0.00 | 0.00 | 0.00 | 86 | 1012.6 |
| 20260905035832 | 80 | 178 | 0.0 | 1.7 | 0.00 | 0.00 | 0.00 | 86 | 1012.6 |
| 20260905035332 | 80 | 212 | 0.9 | 1.7 | 0.00 | 0.00 | 0.00 | 86 | 1012.5 |
| 20260905034831 | 81 | 221 | 0.0 | 0.9 | 0.00 | 0.00 | 0.00 | 86 | 1012.5 |
| 20260905034332 | 81 | 93 | 0.0 | 0.9 | 0.00 | 0.00 | 0.00 | 86 | 1012.6 |
| 20260905033832 | 81 | 178 | 0.0 | 0.9 | 0.00 | 0.00 | 0.00 | 86 | 1012.5 |
| 20260905033326 | 81 | 51 | 0.0 | 1.7 | 0.00 | 0.00 | 0.00 | 85 | 1012.5 |
| 20260905032311 | 81 | 238 | 0.9 | 1.7 | 0.00 | 0.00 | 0.00 | 85 | 1012.5 |
| 20260905031812 | 81 | 221 | 0.0 | 1.7 | 0.00 | 0.00 | 0.00 | 84 | 1012.5 |
| 20260905031310 | 82 | 229 | 1.7 | 1.7 | 0.00 | 0.00 | 0.00 | 84 | 1012.4 |
| 20260905025810 | 82 | 9 | 0.9 | 1.7 | 0.00 | 0.00 | 0.00 | 83 | 1012.3 |
| 20260905025309 | 82 | 325 | 0.0 | 0.9 | 0.00 | 0.00 | 0.00 | 82 | 1012.2 |
| 20260905024810 | 82 | 178 | 0.0 | 0.9 | 0.00 | 0.00 | 0.00 | 82 | 1012.1 |
| 20260905024305 | 83 | 238 | 0.0 | 0.9 | 0.00 | 0.00 | 0.00 | 82 | 1012.2 |
| 20260905023805 | 83 | 309 | 0.0 | 1.7 | 0.00 | 0.00 | 0.00 | 81 | 1012.0 |
| 20260905022758 | 83 | 196 | 0.9 | 0.9 | 0.00 | 0.00 | 0.00 | 81 | 1012.0 |
| 20260905022259 | 84 | 51 | 0.0 | 0.9 | 0.00 | 0.00 | 0.00 | 80 | 1012.0 |
| 20260905021800 | 84 | 51 | 0.0 | 0.9 | 0.00 | 0.00 | 0.00 | 80 | 1012.0 |
| 20260905021259 | 84 | 178 | 0.0 | 0.9 | 0.00 | 0.00 | 0.00 | 80 | 1012.0 |
| 20260905020758 | 85 | 9 | 0.0 | 1.7 | 0.00 | 0.00 | 0.00 | 79 | 1012.0 |
| 20260905020258 | 85 | 137 | 0.9 | 1.7 | 0.00 | 0.00 | 0.00 | 78 | 1012.0 |
| 20260905015758 | 85 | 146 | 0.9 | 1.7 | 0.00 | 0.00 | 0.00 | 77 | 1011.9 |
| 20260905015258 | 86 | 212 | 0.9 | 1.7 | 0.00 | 0.00 | 0.00 | 76 | 1012.0 |
| 20260905013759 | 87 | 265 | 0.0 | 1.7 | 0.00 | 0.00 | 0.00 | 73 | 1011.6 |
| 20260905013253 | 87 | 51 | 0.0 | 1.7 | 0.00 | 0.00 | 0.00 | 72 | 1011.6 |
| 20260905012752 | 88 | 51 | 0.0 | 0.9 | 0.00 | 0.00 | 0.00 | 70 | 1011.6 |
| 20260905012252 | 89 | 51 | 0.0 | 1.7 | 0.00 | 0.00 | 0.00 | 70 | 1011.5 |
| 20260905011253 | 89 | 115 | 0.9 | 1.7 | 0.00 | 0.00 | 0.00 | 68 | 1011.5 |
| 20260905010752 | 89 | 119 | 0.0 | 1.7 | 0.00 | 0.00 | 0.00 | 67 | 1011.5 |
| 20260905010251 | 90 | 126 | 0.9 | 1.7 | 0.00 | 0.00 | 0.00 | 66 | 1011.4 |
| 20260905005751 | 90 | 153 | 0.9 | 1.7 | 0.00 | 0.00 | 0.00 | 66 | 1011.3 |
| 20260905004752 | 91 | 165 | 0.9 | 2.6 | 0.00 | 0.00 | 0.00 | 65 | 1011.3 |
| 20260905004253 | 91 | 153 | 0.9 | 2.6 | 0.00 | 0.00 | 0.00 | 64 | 1011.3 |
| 20260905003751 | 91 | 196 | 1.7 | 5.2 | 0.00 | 0.00 | 0.00 | 64 | 1011.4 |
| 20260905003251 | 91 | 134 | 2.6 | 5.2 | 0.00 | 0.00 | 0.00 | 62 | 1011.3 |
| 20260905002751 | 92 | 142 | 0.9 | 2.6 | 0.00 | 0.00 | 0.00 | 63 | 1011.3 |
| 20260905001750 | 92 | 178 | 0.9 | 1.7 | 0.00 | 0.00 | 0.00 | 61 | 1011.3 |
| 20260905001250 | 92 | 137 | 0.9 | 2.6 | 0.00 | 0.00 | 0.00 | 61 | 1011.2 |
| 20260905000749 | 92 | 137 | 1.7 | 2.6 | 0.00 | 0.00 | 0.00 | 60 | 1011.2 |
| 20260905000249 | 92 | 111 | 0.9 | 1.7 | 0.00 | 0.00 | 0.00 | 61 | 1011.3 |
| 20260904235749 | 92 | 178 | 0.9 | 1.7 | 0.00 | 0.00 | 0.00 | 62 | 1011.3 |
| 20260904234748 | 92 | 178 | 0.0 | 0.9 | 0.00 | 0.00 | 0.00 | 60 | 1011.3 |
| 20260904234246 | 93 | 178 | 0.0 | 1.7 | 0.00 | 0.00 | 0.00 | 62 | 1011.2 |
| 20260904233746 | 93 | 205 | 0.0 | 1.7 | 0.00 | 0.00 | 0.00 | 62 | 1011.3 |
| 20260904233246 | 93 | 221 | 0.9 | 1.7 | 0.00 | 0.00 | 0.00 | 58 | 1011.3 |
| 20260904232246 | 94 | 221 | 1.7 | 3.5 | 0.00 | 0.00 | 0.00 | 57 | 1011.4 |
| 20260904231746 | 94 | 221 | 0.9 | 4.3 | 0.00 | 0.00 | 0.00 | 57 | 1011.4 |
| 20260904231245 | 94 | 205 | 2.6 | 7.0 | 0.00 | 0.00 | 0.00 | 56 | 1011.5 |
| 20260904230745 | 95 | 238 | 3.5 | 7.0 | 0.00 | 0.00 | 0.00 | 55 | 1011.5 |
| 20260904230246 | 96 | 255 | 3.5 | 5.2 | 0.00 | 0.00 | 0.00 | 57 | 1011.5 |
| 20260904225745 | 95 | 257 | 2.6 | 5.2 | 0.00 | 0.00 | 0.00 | 56 | 1011.4 |
| 20260904225245 | 95 | 232 | 2.6 | 5.2 | 0.00 | 0.00 | 0.00 | 56 | 1011.4 |
| 20260904224744 | 95 | 245 | 1.7 | 6.1 | 0.00 | 0.00 | 0.00 | 61 | 1011.4 |
| 20260904223744 | 94 | 221 | 3.5 | 6.1 | 0.00 | 0.00 | 0.00 | 57 | 1011.5 |
| 20260904223244 | 94 | 205 | 2.6 | 6.1 | 0.00 | 0.00 | 0.00 | 61 | 1011.4 |
| 20260904222744 | 94 | 225 | 4.3 | 6.1 | 0.00 | 0.00 | 0.00 | 58 | 1011.4 |
| 20260904222243 | 94 | 238 | 2.6 | 7.8 | 0.00 | 0.00 | 0.00 | 57 | 1011.4 |
| 20260904221743 | 95 | 232 | 4.3 | 7.8 | 0.00 | 0.00 | 0.00 | 56 | 1011.4 |
| 20260904221243 | 95 | 207 | 3.5 | 8.7 | 0.00 | 0.00 | 0.00 | 55 | 1011.4 |
| 20260904220745 | 96 | 200 | 3.5 | 8.7 | 0.00 | 0.00 | 0.00 | 54 | 1011.4 |
| 20260904215742 | 96 | 254 | 5.2 | 7.8 | 0.00 | 0.00 | 0.00 | 56 | 1011.3 |
| 20260904215242 | 96 | 168 | 2.6 | 7.8 | 0.00 | 0.00 | 0.00 | 56 | 1011.3 |
| 20260904214742 | 96 | 208 | 3.5 | 8.7 | 0.00 | 0.00 | 0.00 | 54 | 1011.3 |
| 20260904214243 | 96 | 236 | 3.5 | 8.7 | 0.00 | 0.00 | 0.00 | 55 | 1011.4 |
| 20260904213742 | 95 | 212 | 3.5 | 7.8 | 0.00 | 0.00 | 0.00 | 53 | 1011.3 |
| 20260904213242 | 95 | 201 | 3.5 | 7.8 | 0.00 | 0.00 | 0.00 | 55 | 1011.4 |
| 20260904212241 | 96 | 209 | 5.2 | 10.4 | 0.00 | 0.00 | 0.00 | 55 | 1011.3 |
| 20260904211240 | 95 | 221 | 4.3 | 9.6 | 0.00 | 0.00 | 0.00 | 55 | 1011.3 |
| 20260904210239 | 95 | 140 | 3.5 | 8.7 | 0.00 | 0.00 | 0.00 | 53 | 1011.3 |
| 20260904205739 | 95 | 196 | 5.2 | 8.7 | 0.00 | 0.00 | 0.00 | 52 | 1011.4 |
| 20260904205239 | 95 | 146 | 4.3 | 8.7 | 0.00 | 0.00 | 0.00 | 54 | 1011.3 |
| 20260904204739 | 95 | 216 | 3.5 | 7.0 | 0.00 | 0.00 | 0.00 | 53 | 1011.3 |
| 20260904204239 | 95 | 238 | 3.5 | 7.0 | 0.00 | 0.00 | 0.00 | 54 | 1011.2 |
| 20260904203739 | 96 | 196 | 3.5 | 7.0 | 0.00 | 0.00 | 0.00 | 54 | 1011.3 |
| 20260904202738 | 95 | 178 | 2.6 | 7.8 | 0.00 | 0.00 | 0.00 | 55 | 1011.3 |
| 20260904202237 | 95 | 178 | 3.5 | 8.7 | 0.00 | 0.00 | 0.00 | 54 | 1011.4 |
| 20260904201738 | 95 | 212 | 5.2 | 8.7 | 0.00 | 0.00 | 0.00 | 54 | 1011.4 |
| 20260904201239 | 95 | 202 | 4.3 | 7.8 | 0.00 | 0.00 | 0.00 | 56 | 1011.4 |
| 20260904200738 | 94 | 221 | 4.3 | 8.7 | 0.00 | 0.00 | 0.00 | 58 | 1011.4 |
| 20260904200238 | 94 | 193 | 4.3 | 9.6 | 0.00 | 0.00 | 0.00 | 60 | 1011.5 |
| 20260904195737 | 94 | 221 | 4.3 | 9.6 | 0.00 | 0.00 | 0.00 | 55 | 1011.4 |
| 20260904195237 | 94 | 231 | 3.5 | 8.7 | 0.00 | 0.00 | 0.00 | 57 | 1011.5 |
| 20260904194236 | 94 | 144 | 2.6 | 7.0 | 0.00 | 0.00 | 0.00 | 58 | 1011.5 |
| 20260904193736 | 94 | 210 | 3.5 | 9.6 | 0.00 | 0.00 | 0.00 | 58 | 1011.6 |
| 20260904193236 | 94 | 230 | 4.3 | 9.6 | 0.00 | 0.00 | 0.00 | 57 | 1011.6 |
| 20260904192736 | 94 | 182 | 2.6 | 7.0 | 0.00 | 0.00 | 0.00 | 60 | 1011.6 |
| 20260904192236 | 94 | 227 | 2.6 | 7.8 | 0.00 | 0.00 | 0.00 | 61 | 1011.6 |
| 20260904191736 | 93 | 273 | 4.3 | 7.8 | 0.00 | 0.00 | 0.00 | 58 | 1011.6 |
| 20260904191237 | 93 | 238 | 4.3 | 7.0 | 0.00 | 0.00 | 0.00 | 57 | 1011.6 |
| 20260904190736 | 93 | 247 | 2.6 | 8.7 | 0.00 | 0.00 | 0.00 | 59 | 1011.6 |
| 20260904185736 | 93 | 140 | 3.5 | 7.0 | 0.00 | 0.00 | 0.00 | 60 | 1011.6 |
| 20260904185235 | 93 | 231 | 2.6 | 4.3 | 0.00 | 0.00 | 0.00 | 62 | 1011.6 |
| 20260904184735 | 92 | 209 | 1.7 | 5.2 | 0.00 | 0.00 | 0.00 | 65 | 1011.7 |
| 20260904184235 | 92 | 205 | 2.6 | 7.8 | 0.00 | 0.00 | 0.00 | 60 | 1011.8 |
| 20260904183235 | 91 | 228 | 1.7 | 7.8 | 0.00 | 0.00 | 0.00 | 63 | 1011.9 |
| 20260904182735 | 91 | 189 | 4.3 | 7.8 | 0.00 | 0.00 | 0.00 | 68 | 1011.9 |
| 20260904182234 | 91 | 208 | 3.5 | 6.1 | 0.00 | 0.00 | 0.00 | 67 | 1011.8 |
| 20260904181734 | 90 | 173 | 1.7 | 6.1 | 0.00 | 0.00 | 0.00 | 66 | 1011.9 |
| 20260904181235 | 89 | 168 | 3.5 | 9.6 | 0.00 | 0.00 | 0.00 | 65 | 1011.9 |
| 20260904180734 | 89 | 259 | 4.3 | 9.6 | 0.00 | 0.00 | 0.00 | 70 | 1011.8 |
| 20260904180233 | 89 | 250 | 4.3 | 9.6 | 0.00 | 0.00 | 0.00 | 69 | 1011.8 |
| 20260904173732 | 89 | 238 | 1.7 | 5.2 | 0.00 | 0.00 | 0.00 | 69 | 1011.9 |
| 20260904173232 | 89 | 223 | 3.5 | 7.0 | 0.00 | 0.00 | 0.00 | 67 | 1012.0 |
| 20260904172732 | 89 | 280 | 3.5 | 7.8 | 0.00 | 0.00 | 0.00 | 66 | 1012.0 |
| 20260904172231 | 90 | 236 | 4.3 | 9.6 | 0.00 | 0.00 | 0.00 | 65 | 1012.0 |
| 20260904171733 | 90 | 211 | 5.2 | 9.6 | 0.00 | 0.00 | 0.00 | 64 | 1012.0 |
| 20260904171229 | 89 | 243 | 3.5 | 7.0 | 0.00 | 0.00 | 0.00 | 65 | 1012.0 |
| 20260904170730 | 89 | 227 | 4.3 | 9.6 | 0.00 | 0.00 | 0.00 | 64 | 1012.1 |
| 20260904170230 | 89 | 221 | 4.3 | 9.6 | 0.00 | 0.00 | 0.00 | 64 | 1012.0 |
| 20260904165725 | 89 | 221 | 4.3 | 9.6 | 0.00 | 0.00 | 0.00 | 62 | 1011.9 |
| 20260904165224 | 89 | 271 | 5.2 | 9.6 | 0.00 | 0.00 | 0.00 | 66 | 1011.9 |
| 20260904164724 | 89 | 265 | 4.3 | 10.4 | 0.00 | 0.00 | 0.00 | 68 | 1011.9 |
| 20260904164224 | 89 | 208 | 6.1 | 10.4 | 0.00 | 0.00 | 0.00 | 63 | 1012.0 |
| 20260904163721 | 89 | 270 | 3.5 | 8.7 | 0.00 | 0.00 | 0.00 | 68 | 1012.1 |
| 20260904163221 | 88 | 246 | 3.5 | 8.7 | 0.00 | 0.00 | 0.00 | 66 | 1012.0 |
| 20260904162721 | 88 | 225 | 4.3 | 9.6 | 0.00 | 0.00 | 0.00 | 69 | 1012.0 |
| 20260904162220 | 87 | 232 | 4.3 | 9.6 | 0.00 | 0.00 | 0.00 | 67 | 1011.9 |
| 20260904161722 | 87 | 227 | 3.5 | 7.8 | 0.00 | 0.00 | 0.00 | 67 | 1011.9 |
| 20260904161221 | 87 | 232 | 3.5 | 9.6 | 0.00 | 0.00 | 0.00 | 66 | 1012.1 |
| 20260904160721 | 88 | 229 | 5.2 | 9.6 | 0.00 | 0.00 | 0.00 | 62 | 1012.1 |
| 20260904160220 | 88 | 265 | 3.5 | 8.7 | 0.00 | 0.00 | 0.00 | 69 | 1012.1 |
| 20260904155219 | 87 | 265 | 4.3 | 10.4 | 0.00 | 0.00 | 0.00 | 68 | 1012.1 |
| 20260904154720 | 87 | 232 | 6.1 | 11.3 | 0.00 | 0.00 | 0.00 | 66 | 1012.0 |
| 20260904154220 | 87 | 254 | 4.3 | 11.3 | 0.00 | 0.00 | 0.00 | 67 | 1012.0 |
| 20260904153720 | 87 | 261 | 4.3 | 10.4 | 0.00 | 0.00 | 0.00 | 69 | 1012.0 |
| 20260904153219 | 86 | 267 | 6.1 | 12.2 | 0.00 | 0.00 | 0.00 | 69 | 1012.1 |
| 20260904152219 | 86 | 205 | 5.2 | 12.2 | 0.00 | 0.00 | 0.00 | 67 | 1012.0 |
| 20260904151720 | 85 | 230 | 4.3 | 13.0 | 0.00 | 0.00 | 0.00 | 69 | 1012.1 |
| 20260904151220 | 86 | 221 | 5.2 | 13.0 | 0.00 | 0.00 | 0.00 | 67 | 1012.0 |
| 20260904150719 | 85 | 265 | 4.3 | 9.6 | 0.00 | 0.00 | 0.00 | 69 | 1012.1 |
| 20260904150219 | 85 | 215 | 4.3 | 8.7 | 0.00 | 0.00 | 0.00 | 69 | 1012.0 |
| 20260904144719 | 84 | 211 | 5.2 | 10.4 | 0.00 | 0.00 | 0.00 | 69 | 1012.0 |
| 20260904144218 | 84 | 230 | 3.5 | 10.4 | 0.00 | 0.00 | 0.00 | 73 | 1012.0 |
| 20260904143718 | 83 | 219 | 4.3 | 8.7 | 0.00 | 0.00 | 0.00 | 70 | 1012.0 |
| 20260904143218 | 83 | 257 | 3.5 | 7.8 | 0.00 | 0.00 | 0.00 | 71 | 1012.0 |
| 20260904142718 | 83 | 221 | 5.2 | 7.8 | 0.00 | 0.00 | 0.00 | 70 | 1011.9 |
| 20260904141719 | 83 | 184 | 3.5 | 7.0 | 0.00 | 0.00 | 0.00 | 71 | 1012.0 |
| 20260904141217 | 83 | 232 | 2.6 | 7.0 | 0.00 | 0.00 | 0.00 | 72 | 1012.1 |
| 20260904140717 | 83 | 213 | 2.6 | 7.0 | 0.00 | 0.01 | 0.00 | 73 | 1012.1 |
| 20260904140218 | 82 | 202 | 3.5 | 6.1 | 0.00 | 0.01 | 0.00 | 72 | 1012.1 |
| 20260904134717 | 82 | 234 | 3.5 | 7.0 | 0.00 | 0.01 | 0.00 | 74 | 1011.9 |
| 20260904133215 | 81 | 221 | 3.5 | 5.2 | 0.00 | 0.01 | 0.00 | 75 | 1011.8 |
| 20260904132714 | 80 | 178 | 1.7 | 4.3 | 0.00 | 0.01 | 0.00 | 76 | 1011.7 |
| 20260904132214 | 80 | 186 | 1.7 | 4.3 | 0.00 | 0.01 | 0.00 | 76 | 1011.6 |
| 20260904131715 | 80 | 144 | 1.7 | 5.2 | 0.00 | 0.01 | 0.00 | 77 | 1011.6 |
| 20260904131213 | 80 | 196 | 2.6 | 5.2 | 0.00 | 0.01 | 0.00 | 77 | 1011.5 |
| 20260904130713 | 79 | 187 | 1.7 | 4.3 | 0.00 | 0.01 | 0.00 | 78 | 1011.4 |
| 20260904130214 | 79 | 162 | 1.7 | 3.5 | 0.00 | 0.01 | 0.00 | 79 | 1011.4 |
| 20260904125713 | 78 | 153 | 1.7 | 3.5 | 0.00 | 0.01 | 0.00 | 79 | 1011.3 |
| 20260904125213 | 78 | 141 | 1.7 | 3.5 | 0.00 | 0.01 | 0.00 | 79 | 1011.3 |
| 20260904123713 | 77 | 146 | 0.9 | 3.5 | 0.00 | 0.04 | 0.00 | 79 | 1011.2 |
| 20260904122712 | 77 | 196 | 1.7 | 4.3 | 0.00 | 0.06 | 0.00 | 79 | 1011.1 |
| 20260904122212 | 77 | 144 | 0.9 | 5.2 | 0.00 | 0.07 | 0.00 | 79 | 1011.1 |
| 20260904121212 | 77 | 162 | 2.6 | 4.3 | 0.00 | 0.07 | 0.00 | 79 | 1011.0 |
| 20260904120713 | 77 | 178 | 1.7 | 5.2 | 0.00 | 0.07 | 0.00 | 79 | 1011.0 |
| 20260904120213 | 77 | 185 | 1.7 | 5.2 | 0.00 | 0.07 | 0.00 | 79 | 1011.0 |
| 20260904115712 | 77 | 153 | 1.7 | 5.2 | 0.00 | 0.07 | 0.00 | 79 | 1010.9 |
| 20260904115212 | 77 | 205 | 1.7 | 5.2 | 0.00 | 0.07 | 0.00 | 78 | 1011.0 |
| 20260904114712 | 78 | 123 | 2.6 | 5.2 | 0.00 | 0.07 | 0.00 | 78 | 1010.9 |
| 20260904113712 | 78 | 178 | 1.7 | 4.3 | 0.00 | 0.07 | 0.00 | 77 | 1010.9 |
| 20260904113212 | 78 | 178 | 2.6 | 4.3 | 0.00 | 0.07 | 0.00 | 77 | 1010.9 |
| 20260904112712 | 78 | 137 | 1.7 | 4.3 | 0.00 | 0.07 | 0.00 | 77 | 1010.9 |
| 20260904112212 | 78 | 168 | 1.7 | 5.2 | 0.00 | 0.07 | 0.00 | 76 | 1011.0 |
| 20260904111713 | 78 | 190 | 1.7 | 5.2 | 0.00 | 0.07 | 0.00 | 76 | 1010.9 |
| 20260904111212 | 78 | 119 | 1.7 | 4.3 | 0.00 | 0.07 | 0.00 | 76 | 1011.0 |
| 20260904110711 | 78 | 202 | 1.7 | 4.3 | 0.00 | 0.07 | 0.00 | 76 | 1011.0 |
| 20260904110211 | 79 | 173 | 1.7 | 5.2 | 0.00 | 0.07 | 0.00 | 75 | 1010.9 |
| 20260904105211 | 79 | 178 | 1.7 | 7.0 | 0.00 | 0.07 | 0.00 | 74 | 1010.9 |
| 20260904104711 | 79 | 141 | 1.7 | 7.0 | 0.00 | 0.07 | 0.00 | 74 | 1010.8 |
| 20260904104210 | 79 | 196 | 3.5 | 7.0 | 0.00 | 0.07 | 0.00 | 74 | 1010.8 |
| 20260904103710 | 79 | 163 | 2.6 | 6.1 | 0.00 | 0.07 | 0.00 | 74 | 1010.8 |
| 20260904101709 | 80 | 178 | 2.6 | 5.2 | 0.00 | 0.07 | 0.00 | 72 | 1010.8 |
| 20260904101210 | 80 | 190 | 2.6 | 8.7 | 0.00 | 0.07 | 0.00 | 71 | 1010.9 |
| 20260904100710 | 80 | 178 | 4.3 | 8.7 | 0.00 | 0.07 | 0.00 | 71 | 1010.9 |
| 20260904100209 | 80 | 147 | 4.3 | 7.8 | 0.00 | 0.07 | 0.00 | 71 | 1010.8 |
| 20260904095709 | 81 | 166 | 3.5 | 7.8 | 0.00 | 0.07 | 0.00 | 71 | 1010.8 |
| 20260904095209 | 81 | 187 | 3.5 | 8.7 | 0.00 | 0.07 | 0.00 | 71 | 1010.8 |
| 20260904093709 | 81 | 201 | 6.1 | 13.0 | 0.00 | 0.07 | 0.00 | 71 | 1010.6 |
| 20260904093208 | 81 | 171 | 2.6 | 9.6 | 0.00 | 0.07 | 0.00 | 71 | 1010.6 |
| 20260904092708 | 82 | 192 | 4.3 | 11.3 | 0.00 | 0.07 | 0.00 | 69 | 1010.6 |
| 20260904092210 | 82 | 198 | 4.3 | 13.0 | 0.00 | 0.07 | 0.00 | 69 | 1010.5 |
| 20260904091708 | 82 | 209 | 5.2 | 13.0 | 0.00 | 0.07 | 0.00 | 68 | 1010.4 |
| 20260904091209 | 83 | 165 | 4.3 | 12.2 | 0.00 | 0.07 | 0.00 | 68 | 1010.5 |
| 20260904090709 | 83 | 85 | 5.2 | 12.2 | 0.00 | 0.07 | 0.00 | 68 | 1010.4 |
| 20260904090208 | 82 | 226 | 5.2 | 12.2 | 0.00 | 0.07 | 0.00 | 69 | 1010.3 |
| 20260904085708 | 82 | 207 | 7.0 | 12.2 | 0.00 | 0.07 | 0.00 | 70 | 1010.3 |
| 20260904085208 | 81 | 215 | 5.2 | 11.3 | 0.00 | 0.07 | 0.00 | 70 | 1010.2 |
| 20260904084708 | 81 | 198 | 5.2 | 9.6 | 0.00 | 0.07 | 0.00 | 70 | 1010.2 |
| 20260904084208 | 81 | 135 | 5.2 | 11.3 | 0.00 | 0.07 | 0.00 | 69 | 1010.3 |
| 20260904083707 | 82 | 196 | 4.3 | 13.0 | 0.00 | 0.07 | 0.00 | 69 | 1010.3 |
| 20260904083209 | 82 | 221 | 6.1 | 13.0 | 0.00 | 0.07 | 0.00 | 69 | 1010.2 |
| 20260904082707 | 82 | 211 | 6.1 | 11.3 | 0.00 | 0.07 | 0.00 | 68 | 1010.2 |
| 20260904082210 | 81 | 131 | 5.2 | 13.9 | 0.00 | 0.07 | 0.00 | 68 | 1010.2 |
| 20260904081708 | 81 | 178 | 5.2 | 13.9 | 0.00 | 0.07 | 0.00 | 68 | 1010.0 |
| 20260904081208 | 81 | 173 | 5.2 | 13.0 | 0.00 | 0.07 | 0.00 | 69 | 1010.0 |
| 20260904080707 | 81 | 198 | 6.1 | 13.0 | 0.00 | 0.07 | 0.00 | 69 | 1010.0 |
| 20260904080207 | 81 | 196 | 7.0 | 13.9 | 0.00 | 0.07 | 0.00 | 69 | 1010.0 |
| 20260904075707 | 81 | 193 | 7.0 | 13.9 | 0.00 | 0.07 | 0.00 | 68 | 1010.2 |
| 20260904075207 | 82 | 198 | 7.8 | 13.9 | 0.00 | 0.07 | 0.00 | 67 | 1010.2 |
| 20260904074707 | 82 | 169 | 7.0 | 14.8 | 0.00 | 0.07 | 0.00 | 66 | 1010.2 |
| 20260904074207 | 83 | 141 | 7.0 | 14.8 | 0.00 | 0.07 | 0.00 | 65 | 1010.3 |
| 20260904073707 | 83 | 218 | 5.2 | 11.3 | 0.00 | 0.07 | 0.00 | 64 | 1010.3 |
| 20260904073206 | 83 | 238 | 6.1 | 10.4 | 0.00 | 0.07 | 0.00 | 65 | 1010.3 |
| 20260904072706 | 83 | 221 | 4.3 | 10.4 | 0.00 | 0.07 | 0.00 | 64 | 1010.0 |
| 20260904072208 | 83 | 193 | 5.2 | 11.3 | 0.00 | 0.07 | 0.00 | 64 | 1010.2 |
| 20260904071706 | 83 | 205 | 3.5 | 11.3 | 0.00 | 0.07 | 0.00 | 64 | 1010.2 |
| 20260904071206 | 83 | 231 | 5.2 | 12.2 | 0.00 | 0.07 | 0.00 | 64 | 1010.3 |
| 20260904070206 | 83 | 147 | 5.2 | 9.6 | 0.00 | 0.07 | 0.00 | 63 | 1010.2 |
| 20260904065706 | 83 | 221 | 4.3 | 13.0 | 0.00 | 0.07 | 0.00 | 63 | 1010.2 |
| 20260904065206 | 83 | 226 | 3.5 | 13.0 | 0.00 | 0.07 | 0.00 | 63 | 1010.3 |
| 20260904064706 | 83 | 189 | 3.5 | 9.6 | 0.00 | 0.07 | 0.00 | 63 | 1010.3 |
| 20260904064205 | 83 | 196 | 4.3 | 11.3 | 0.00 | 0.07 | 0.00 | 63 | 1010.3 |
| 20260904063705 | 83 | 147 | 4.3 | 11.3 | 0.00 | 0.07 | 0.00 | 63 | 1010.3 |
| 20260904063205 | 83 | 146 | 3.5 | 10.4 | 0.00 | 0.07 | 0.00 | 63 | 1010.2 |
| 20260904062705 | 83 | 202 | 3.5 | 10.4 | 0.00 | 0.07 | 0.00 | 63 | 1010.3 |
| 20260904062206 | 83 | 61 | 4.3 | 8.7 | 0.00 | 0.07 | 0.00 | 63 | 1010.3 |
| 20260904061705 | 83 | 178 | 4.3 | 7.8 | 0.00 | 0.07 | 0.00 | 63 | 1010.2 |
| 20260904061205 | 83 | 147 | 4.3 | 11.3 | 0.00 | 0.07 | 0.00 | 62 | 1010.0 |
| 20260904060705 | 84 | 137 | 5.2 | 11.3 | 0.00 | 0.07 | 0.00 | 62 | 1010.0 |
| 20260904060204 | 84 | 168 | 5.2 | 10.4 | 0.00 | 0.07 | 0.00 | 62 | 1010.2 |
| 20260904055704 | 84 | 218 | 5.2 | 11.3 | 0.00 | 0.07 | 0.00 | 62 | 1010.2 |
| 20260904055204 | 84 | 165 | 6.1 | 11.3 | 0.00 | 0.07 | 0.00 | 62 | 1010.2 |
| 20260904054204 | 84 | 163 | 6.1 | 10.4 | 0.00 | 0.07 | 0.00 | 62 | 1010.0 |
| 20260904053704 | 84 | 173 | 4.3 | 8.7 | 0.00 | 0.07 | 0.00 | 62 | 1010.0 |
| 20260904052703 | 84 | 211 | 4.3 | 11.3 | 0.00 | 0.07 | 0.00 | 62 | 1009.9 |
| 20260904052204 | 84 | 175 | 3.5 | 11.3 | 0.00 | 0.07 | 0.00 | 63 | 1009.8 |
| 20260904051203 | 84 | 135 | 3.5 | 10.4 | 0.00 | 0.07 | 0.00 | 63 | 1009.8 |
| 20260904050700 | 84 | 178 | 3.5 | 13.9 | 0.00 | 0.07 | 0.00 | 63 | 1009.8 |
| 20260904050200 | 84 | 178 | 5.2 | 13.9 | 0.00 | 0.07 | 0.00 | 62 | 1009.8 |
| 20260904045701 | 84 | 183 | 3.5 | 11.3 | 0.00 | 0.07 | 0.07 | 62 | 1009.8 |
| 20260904044700 | 84 | 182 | 4.3 | 7.8 | 0.00 | 0.07 | 0.07 | 62 | 1009.7 |
| 20260904043700 | 85 | 123 | 5.2 | 9.6 | 0.00 | 0.07 | 0.07 | 63 | 1009.7 |
| 20260904043200 | 85 | 225 | 4.3 | 10.4 | 0.00 | 0.07 | 0.07 | 62 | 1009.7 |